{"data":{"norad_id":67980,"epoch":"2026-05-24T23:27:46.392192Z","epoch_age_seconds":87663,"freshness":"FRESH","line1":"1 67980U 26038V   26144.97762028  .00050198  00000+0  15432-2 0  9996","line2":"2 67980  97.2867 155.0583 0000625  60.7962 299.3343 15.33521392 14935","mean_motion":15.33521392,"eccentricity":6.25e-5,"inclination_deg":97.2867,"raan_deg":155.0583,"arg_perigee_deg":60.7962,"mean_anomaly_deg":299.3343,"bstar":0.0015432,"rev_number":1493,"period_min":93.901526741793,"perigee_km":464.88817926187,"apogee_km":465.74361087375,"semimajor_km":6843.4528950678,"source":"CELESTRAK","updated_at":"2026-05-25T13:38:21.777044Z"}}